SCP
0 0 0 0 0 0 0 0 0 0 -0 0 0 0 0 0 0 0 0 0 0 0 0 0 0 0 0 0 0 0 0 -0 0 0 0 0 0 -0 0 0 0 0 0
0 0 0 0 0 0 0 0 0 0 0 0 0 0 0 0 0 0 0 0 0 0 0 0 0 0 0 0 0 0 0 0 0 -0 -0 -0 0 -0 -0 -0 -0 0 0
0 -0 -0 -0 0 0 0 0 0 0 0 0 0 0 0 0 0 0 0 0 -0 0 0 0 0 0 0 0 0 0 0 0 0 -0 -0 0 -0 -0 -0 0 0 0 0
0 -0 0 0 0 0 0 0 0 0 0 0 0 0 0 0 -0 0 0 0 0 -0 0 0 0 0 0 0 0 0 0 0 -0 0 -0 0 0 0 0 0 0 0 0
0 0 -0 -0 0 0 0 0 0 0 0 0 0 0 0 0 0 0 0 0 0 0 0 0 0 0 0 0 0 0 0 0 -0 0 0 0 0 0 0 0 -0 0 0
-0 0 0 0 0 0 0 0 0 0 0 0 0 0 0 0 0 0 0 0 0 0 0 0 0 0 0 0 0 0 0 0 0 -0 -0 0 -0 -0 -0 -0 -0 -0 0
0 -0 0 0 -0 0 0 -0 0 0 0 -0 -0 0 0 0 0 0 0 0 0 0 -0 0 0 -0 0 0 0 0 0 0 0 0 0 -0 -0 -0 -0 -0 -0 0 0
0 -0 -0 0 0 0 0 0 0 0 0 -0 -0 -0 -0 0 0 0 0 0 0 0 0 0 0 0 -0 0 0 0 0 0 0 -0 -0 -0 -0 -0 -0 -0 0 0 0
0 0 0 -0 0 -0 0 0 0 0 0 -0 -0 -0 0 -0 0 0 0 0 0 0 0 0 0 0 -0 -0 0 0 0 -0 0 0 -0 -0 -0 -0 -0 0 0 0 0
0 0 0 0 0 -0 -0 0 -0 0 0 0 0 0 -0 0 -0 0 0 0 0 0 0 0 -0 -0 -0 -0 0 0 0 -0 0 0 0 0 0 0 0 0 0 0 0
-0 0 0 -0 -0 -0 -0 -0 0 0 0 0 0 0 0 0 -0 -0 -0 0 0 0 0 0 -0 -0 -0 -0 -0 -0 0 0 0 0 0 0 0 0 0 0 0 0 0
0 -0 -0 -0 -0 -0 0 0 0 -0 -0 -0 0 0 -0 -0 -0 -0 0 -0 -0 -0 -0 -0 -0 0 0 0 -0 0 -0 0 0 0 0 0 0 0 0 0 0 0 0
0 -0 -0 -0 -0 -0 0 0 0 -0 -0 0 -0 -0 -0 -0 -0 -0 -0 -0 -0 -0 -0 -0 -0 -0 -0 0 -0 0 0 0 0 0 0 0 0 0 0 0 0 0 0
-0 -0 -0 -0 -0 -0 0 -0 0 0 0 -0 -0 0 0 -0 -0 0 0 -0 -0 -0 -0 -0 -0 -0 0 -0 0 0 0 0 0 0 0 0 0 0 0 0 0 0 0
-0 0 0 -0 -0 -0 0 0 0 -0 0 0 0 0 0 0 0 0 0 0 0 0 0 0 0 0 0 0 0 0 0 0 0 0 0 0 0 0 0 0 0 0 0
0 0 0 -0 0 0 -0 0 -0 -0 -0 0 0 0 0 0 0 0 0 0 0 0 0 0 0 0 0 0 0 0 0 0 0 0 0 0 0 0 0 0 0 0 0
0 0 0 0 0 -0 -0 0 0 0 0 -0 -0 -0 0 0 0 0 0 0 0 0 0 0 0 0 0 0 0 0 0 0 0 0 0 0 0 0 0 0 0 0 0
0 0 0 0 0 0 0 -0 0 0 -0 0 0 -0 -0 0 0 0 0 0 0 0 0 0 0 0 0 0 0 0 0 0 0 0 0 0 0 0 0 0 0 0 0
0 0 0 0 0 0 0 -0 -0 0 0 0 0 0 -0 -0 0 0 0 0 0 0 0 0 0 0 0 0 0 0 0 0 0 0 0 0 0 0 0 0 0 0 0
0 0 0 0 0 0 0 0 -0 0 -0 0 0 0 0 0 0 0 0 -0 -0 0 0 0 0 0 0 0 0 0 0 0 0 0 0 0 0 0 0 0 0 0 0
0 0 0 0 0 0 0 0 0 0 0 0 0 0 0 0 0 0 0 0 0 0 0 0 0 0 0 0 0 0 0 0 0 0 0 0 0 0 0 0 0 0 0
0 0 0 0 0 0 0 -0 0 -0 0 0 0 0 0 0 0 0 0 0 0 0 0 0 0 0 0 0 0 0 0 0 0 0 0 0 0 0 0 0 0 0 0
0 0 0 0 0 0 0 0 0 0 -0 0 0 0 0 0 0 -0 0 0 0 0 0 0 0 0 0 0 0 0 0 0 0 0 0 0 0 0 0 0 0 0 0
-0 0 0 0 0 0 0 0 0 0 0 -0 0 0 0 0 0 0 0 0 0 0 0 0 0 0 0 0 0 0 0 0 0 0 0 0 0 0 0 0 0 0 0
0 0 0 0 0 0 -0 0 0 0 0 0 -0 0 0 0 0 0 -0 0 0 0 0 0 0 0 0 0 0 0 0 0 0 0 0 0 0 0 0 0 0 0 0
0 0 0 0 0 -0 0 0 0 0 0 0 0 0 0 0 0 0 0 0 0 -0 0 0 0 0 0 0 0 0 0 0 0 0 0 0 0 0 0 0 0 0 0
Wind_Speed_500mb
19 22 24 23 21 18 20 16 18 23 20 18 22 19 20 19 22 22 21 22 24 25 23 21 20 20 19 15 12 10 8 16 11 9 10 6 1 3 4 8 11 6 14
17 22 26 28 19 14 15 18 21 20 18 19 17 13 19 19 18 19 23 21 20 19 17 16 16 12 13 13 9 12 8 8 8 9 10 1 2 7 7 6 5 9 15
16 21 26 28 24 19 19 19 19 21 16 18 13 17 17 19 21 22 18 20 18 19 18 15 10 12 12 11 12 14 10 9 7 6 5 2 4 5 13 12 9 10 13
17 20 23 24 23 24 20 21 23 19 20 15 13 11 12 14 9 14 23 24 23 22 22 21 18 15 15 20 15 14 8 8 12 6 4 3 3 5 9 9 11 16 13
14 18 17 19 18 15 15 14 17 21 21 18 24 21 15 13 14 15 24 18 20 21 21 22 27 29 25 16 18 9 8 6 1 7 4 1 4 1 11 11 15 16 10
13 14 13 15 14 12 12 18 16 11 15 19 20 19 19 14 18 16 17 17 15 11 13 17 19 20 21 22 20 20 21 21 14 11 11 9 7 11 13 15 17 21 15
14 14 12 14 13 15 12 11 15 12 10 12 16 17 17 17 16 16 15 15 15 18 19 15 18 12 16 11 14 14 18 20 17 17 14 14 14 14 15 19 19 20 18
10 11 11 11 12 14 12 15 16 14 7 14 12 13 11 12 12 14 17 18 13 10 11 11 9 10 10 17 15 17 14 19 16 18 18 13 15 18 23 25 20 22 25
9 7 7 12 11 11 13 11 16 14 10 8 5 6 5 8 6 5 6 12 9 8 8 7 10 11 15 16 14 18 13 16 19 20 19 21 24 25 22 11 16 20 22
11 9 9 14 13 16 19 12 10 11 15 7 9 8 12 6 8 5 4 11 7 10 12 10 5 14 14 11 12 14 14 16 11 13 15 22 21 15 13 12 13 16 18
13 15 15 15 14 15 26 21 12 11 13 12 14 15 12 12 15 11 8 5 9 11 15 1 8 14 12 16 18 15 17 14 9 16 17 14 12 14 11 10 16 13 17
18 19 20 16 16 15 25 27 14 10 14 16 12 10 15 16 16 14 16 15 9 10 5 8 13 19 16 17 11 23 11 9 17 14 13 12 12 11 12 14 22 17 16
24 25 22 20 20 20 19 23 22 21 9 13 11 11 10 12 14 18 20 21 20 18 16 19 21 22 19 17 18 20 9 14 14 12 13 14 15 17 24 15 19 21 25
30 24 23 27 21 18 22 26 18 21 17 14 13 11 10 11 10 9 10 13 14 13 21 18 19 19 12 9 14 17 14 15 16 11 16 16 16 15 16 14 16 16 19
34 28 24 27 24 24 26 27 21 18 16 18 15 12 12 10 16 21 19 12 16 18 24 20 23 22 18 17 15 16 16 16 18 17 17 17 16 16 16 15 16 16 17
34 32 26 30 22 22 25 29 27 19 24 18 19 18 13 20 22 25 22 20 19 21 22 19 20 20 19 18 17 17 16 18 17 17 15 16 17 16 17 17 15 16 17
38 34 29 26 31 29 26 27 28 22 31 32 19 14 19 26 22 20 21 20 20 22 22 17 21 22 21 19 18 18 18 17 22 13 17 16 16 16 17 17 17 16 16
40 39 35 30 30 33 27 32 32 29 30 31 29 18 16 19 23 20 20 23 24 22 16 17 20 20 20 19 19 19 18 17 15 16 15 15 15 16 16 17 17 12 15
41 42 39 34 35 33 35 32 34 28 30 29 18 25 20 10 16 22 22 24 20 18 20 21 20 19 19 19 19 18 19 14 17 16 13 14 15 16 16 17 17 18 15
39 42 40 39 38 38 36 35 41 30 28 27 26 21 20 9 19 20 19 11 15 20 20 20 19 19 19 18 18 18 16 15 15 16 16 16 15 15 16 18 17 16 16
35 41 38 42 42 41 46 39 38 29 30 32 27 25 15 15 23 22 19 24 24 22 20 20 20 19 18 17 18 15 16 17 16 17 17 16 16 17 16 17 16 15 16
41 39 41 40 44 45 49 52 38 43 40 32 31 25 24 23 20 22 21 19 20 20 20 20 18 18 18 19 18 18 17 17 17 16 16 17 17 17 17 16 16 15 15
38 54 47 42 48 49 55 46 46 52 43 40 38 34 23 23 27 27 24 21 19 19 18 20 20 18 18 19 19 16 16 17 17 16 16 16 17 17 16 16 15 15 15
39 39 42 46 49 49 54 63 58 50 49 49 45 46 40 34 39 32 31 28 26 24 22 21 22 20 19 22 21 20 18 19 13 14 17 17 16 16 15 16 17 16 17
41 44 44 49 53 57 60 49 58 46 47 54 46 45 44 32 34 31 31 28 31 31 30 27 26 26 26 25 24 21 34 39 35 26 24 21 17 18 18 17 18 18 17
41 44 48 45 52 64 50 57 52 50 54 55 49 44 46 34 40 38 35 28 35 35 35 32 29 30 29 28 28 30 39 35 29 24 22 21 17 15 15 19 20 21 19
Wind_Direction_500mb
355 349 343 343 356 5 359 3 354 353 346 4 8 4 20 27 41 32 37 35 35 44 55 58 53 68 94 88 76 75 74 55 96 97 121 170 80 140 291 307 281 279 293
352 347 349 343 341 349 1 9 358 339 3 34 5 29 27 32 31 29 32 27 32 42 47 52 61 67 59 64 49 61 79 85 98 112 115 274 62 319 351 350 292 290 271
344 356 357 359 14 27 15 16 16 1 23 43 17 17 25 23 26 29 22 45 38 54 54 56 75 85 75 89 81 63 78 85 36 83 127 85 322 294 307 311 285 318 274
346 348 3 21 16 34 34 31 25 26 32 39 32 20 28 31 20 48 45 48 46 49 56 51 63 76 90 75 57 49 63 74 62 69 30 315 288 287 317 324 313 274 297
342 354 8 20 23 33 33 33 36 34 35 31 37 53 52 27 44 94 79 53 59 61 64 60 72 75 82 81 63 53 23 18 193 7 297 187 326 258 320 329 307 303 288
343 354 351 16 12 21 11 0 13 40 44 39 43 42 48 45 68 88 85 76 59 60 77 78 49 52 61 54 41 34 34 34 13 338 321 360 302 323 325 333 316 317 325
328 335 337 344 346 339 340 353 353 358 22 60 53 53 48 63 65 60 56 61 65 52 49 42 60 56 27 19 353 12 5 0 359 3 344 339 331 324 335 337 323 321 311
300 333 347 346 347 343 339 339 330 337 3 55 53 56 47 46 61 69 67 57 56 48 36 40 31 12 352 3 360 359 350 345 337 326 314 314 317 319 322 323 333 322 310
278 315 325 336 335 353 350 333 329 327 327 28 347 359 16 353 28 44 23 74 40 5 24 352 354 343 325 334 344 347 333 331 319 314 312 301 305 306 315 326 336 325 329
277 274 311 350 333 328 342 319 323 324 308 316 298 285 297 291 297 319 329 354 346 330 326 250 297 340 329 345 337 329 321 313 320 310 313 319 316 345 332 335 334 329 326
258 264 281 298 314 324 329 323 307 317 314 315 281 277 272 270 279 267 269 288 312 327 6 48 10 351 335 333 331 329 324 329 332 324 321 320 305 289 324 318 313 332 316
257 262 267 285 289 307 317 333 321 290 305 299 291 280 272 236 281 277 261 261 270 271 327 333 330 335 327 332 335 332 339 15 340 311 309 312 311 298 294 299 293 316 315
256 259 264 268 279 296 301 309 306 284 307 317 313 305 277 257 274 291 282 259 258 263 270 289 298 307 320 341 325 355 26 349 321 314 306 304 305 298 315 316 318 313 322
257 260 261 265 272 286 287 295 306 314 295 298 301 314 293 264 255 258 295 306 293 288 279 294 295 315 305 314 320 332 337 303 316 304 305 298 300 302 302 296 309 309 319
259 260 260 263 260 278 278 293 291 293 289 295 297 290 294 277 229 254 283 254 244 256 258 269 277 280 284 285 282 291 296 297 307 298 299 297 297 298 300 301 306 308 314
259 259 256 261 280 268 285 289 279 300 274 282 274 262 262 259 279 273 267 264 268 272 270 270 268 270 273 276 279 285 293 297 295 295 298 296 294 296 298 302 295 302 307
258 260 256 264 266 261 272 287 288 291 289 260 258 253 270 258 278 289 271 269 273 282 283 268 263 265 266 267 272 280 289 289 287 299 288 289 290 292 298 301 297 295 302
261 260 259 257 261 278 270 275 280 277 290 275 239 239 296 272 264 281 274 268 275 270 290 259 269 265 262 264 269 278 281 281 286 285 286 285 287 291 296 298 299 294 302
263 262 256 256 255 260 259 264 273 271 289 288 267 250 254 255 269 276 276 268 259 262 265 269 268 263 261 265 272 273 275 277 269 282 277 282 283 289 293 297 299 293 291
265 266 261 258 260 258 258 262 261 269 267 274 279 276 212 262 280 266 250 251 255 269 271 271 269 264 263 266 269 273 278 282 283 284 281 281 282 285 291 297 298 293 293
284 269 262 262 253 256 257 261 259 270 260 260 282 265 231 249 286 273 259 260 268 270 268 269 266 265 266 263 272 273 274 278 277 277 277 278 279 283 287 294 296 291 293
295 282 275 267 266 252 258 258 254 251 268 260 258 282 257 267 262 259 259 262 269 269 266 265 267 265 263 259 260 262 270 271 273 275 274 274 275 279 282 288 292 293 294
306 293 284 273 259 255 263 258 254 248 257 254 258 259 248 257 260 260 256 255 261 266 266 262 263 265 261 257 257 262 261 262 261 266 270 272 271 273 274 277 285 288 292
318 298 294 278 267 266 257 253 253 245 248 256 257 246 263 272 256 252 259 261 263 259 259 260 259 255 252 252 253 260 263 250 250 270 272 270 267 271 276 273 278 281 287
312 308 297 289 283 266 258 252 255 252 252 247 256 249 255 261 280 239 250 262 258 257 256 256 258 259 258 251 243 244 249 258 276 283 276 269 267 264 266 264 267 278 277
318 314 320 302 291 276 275 250 249 248 253 246 253 251 250 265 254 251 265 259 255 259 254 250 254 253 252 252 249 244 252 271 279 284 279 271 264 263 266 267 270 271 273
Wind_Speed_850mb
19 22 24 23 21 18 20 16 18 23 20 18 22 19 20 19 22 22 21 22 24 25 23 21 20 20 19 15 12 10 8 16 11 9 10 6 1 3 4 8 11 6 14
17 22 26 28 19 14 15 18 21 20 18 19 17 13 19 19 18 19 23 21 20 19 17 16 16 12 13 13 9 12 8 8 8 9 10 1 2 7 7 6 5 9 15
16 21 26 28 24 19 19 19 19 21 16 18 13 17 17 19 21 22 18 20 18 19 18 15 10 12 12 11 12 14 10 9 7 6 5 2 4 5 13 12 9 10 13
17 20 23 24 23 24 20 21 23 19 20 15 13 11 12 14 9 14 23 24 23 22 22 21 18 15 15 20 15 14 8 8 12 6 4 3 3 5 9 9 11 16 13
14 18 17 19 18 15 15 14 17 21 21 18 24 21 15 13 14 15 24 18 20 21 21 22 27 29 25 16 18 9 8 6 1 7 4 1 4 1 11 11 15 16 10
13 14 13 15 14 12 12 18 16 11 15 19 20 19 19 14 18 16 17 17 15 11 13 17 19 20 21 22 20 20 21 21 14 11 11 9 7 11 13 15 17 21 15
14 14 12 14 13 15 12 11 15 12 10 12 16 17 17 17 16 16 15 15 15 18 19 15 18 12 16 11 14 14 18 20 17 17 14 14 14 14 15 19 19 20 18
10 11 11 11 12 14 12 15 16 14 7 14 12 13 11 12 12 14 17 18 13 10 11 11 9 10 10 17 15 17 14 19 16 18 18 13 15 18 23 25 20 22 25
9 7 7 12 11 11 13 11 16 14 10 8 5 6 5 8 6 5 6 12 9 8 8 7 10 11 15 16 14 18 13 16 19 20 19 21 24 25 22 11 16 20 22
11 9 9 14 13 16 19 12 10 11 15 7 9 8 12 6 8 5 4 11 7 10 12 10 5 14 14 11 12 14 14 16 11 13 15 22 21 15 13 12 13 16 18
13 15 15 15 14 15 26 21 12 11 13 12 14 15 12 12 15 11 8 5 9 11 15 1 8 14 12 16 18 15 17 14 9 16 17 14 12 14 11 10 16 13 17
18 19 20 16 16 15 25 27 14 10 14 16 12 10 15 16 16 14 16 15 9 10 5 8 13 19 16 17 11 23 11 9 17 14 13 12 12 11 12 14 22 17 16
24 25 22 20 20 20 19 23 22 21 9 13 11 11 10 12 14 18 20 21 20 18 16 19 21 22 19 17 18 20 9 14 14 12 13 14 15 17 24 15 19 21 25
30 24 23 27 21 18 22 26 18 21 17 14 13 11 10 11 10 9 10 13 14 13 21 18 19 19 12 9 14 17 14 15 16 11 16 16 16 15 16 14 16 16 19
34 28 24 27 24 24 26 27 21 18 16 18 15 12 12 10 16 21 19 12 16 18 24 20 23 22 18 17 15 16 16 16 18 17 17 17 16 16 16 15 16 16 17
34 32 26 30 22 22 25 29 27 19 24 18 19 18 13 20 22 25 22 20 19 21 22 19 20 20 19 18 17 17 16 18 17 17 15 16 17 16 17 17 15 16 17
38 34 29 26 31 29 26 27 28 22 31 32 19 14 19 26 22 20 21 20 20 22 22 17 21 22 21 19 18 18 18 17 22 13 17 16 16 16 17 17 17 16 16
40 39 35 30 30 33 27 32 32 29 30 31 29 18 16 19 23 20 20 23 24 22 16 17 20 20 20 19 19 19 18 17 15 16 15 15 15 16 16 17 17 12 15
41 42 39 34 35 33 35 32 34 28 30 29 18 25 20 10 16 22 22 24 20 18 20 21 20 19 19 19 19 18 19 14 17 16 13 14 15 16 16 17 17 18 15
39 42 40 39 38 38 36 35 41 30 28 27 26 21 20 9 19 20 19 11 15 20 20 20 19 19 19 18 18 18 16 15 15 16 16 16 15 15 16 18 17 16 16
35 41 38 42 42 41 46 39 38 29 30 32 27 25 15 15 23 22 19 24 24 22 20 20 20 19 18 17 18 15 16 17 16 17 17 16 16 17 16 17 16 15 16
41 39 41 40 44 45 49 52 38 43 40 32 31 25 24 23 20 22 21 19 20 20 20 20 18 18 18 19 18 18 17 17 17 16 16 17 17 17 17 16 16 15 15
38 54 47 42 48 49 55 46 46 52 43 40 38 34 23 23 27 27 24 21 19 19 18 20 20 18 18 19 19 16 16 17 17 16 16 16 17 17 16 16 15 15 15
39 39 42 46 49 49 54 63 58 50 49 49 45 46 40 34 39 32 31 28 26 24 22 21 22 20 19 22 21 20 18 19 13 14 17 17 16 16 15 16 17 16 17
41 44 44 49 53 57 60 49 58 46 47 54 46 45 44 32 34 31 31 28 31 31 30 27 26 26 26 25 24 21 34 39 35 26 24 21 17 18 18 17 18 18 17
41 44 48 45 52 64 50 57 52 50 54 55 49 44 46 34 40 38 35 28 35 35 35 32 29 30 29 28 28 30 39 35 29 24 22 21 17 15 15 19 20 21 19
Wind_Direction_850mb
355 349 343 343 356 5 359 3 354 353 346 4 8 4 20 27 41 32 37 35 35 44 55 58 53 68 94 88 76 75 74 55 96 97 121 170 80 140 291 307 281 279 293
352 347 349 343 341 349 1 9 358 339 3 34 5 29 27 32 31 29 32 27 32 42 47 52 61 67 59 64 49 61 79 85 98 112 115 274 62 319 351 350 292 290 271
344 356 357 359 14 27 15 16 16 1 23 43 17 17 25 23 26 29 22 45 38 54 54 56 75 85 75 89 81 63 78 85 36 83 127 85 322 294 307 311 285 318 274
346 348 3 21 16 34 34 31 25 26 32 39 32 20 28 31 20 48 45 48 46 49 56 51 63 76 90 75 57 49 63 74 62 69 30 315 288 287 317 324 313 274 297
342 354 8 20 23 33 33 33 36 34 35 31 37 53 52 27 44 94 79 53 59 61 64 60 72 75 82 81 63 53 23 18 193 7 297 187 326 258 320 329 307 303 288
343 354 351 16 12 21 11 0 13 40 44 39 43 42 48 45 68 88 85 76 59 60 77 78 49 52 61 54 41 34 34 34 13 338 321 360 302 323 325 333 316 317 325
328 335 337 344 346 339 340 353 353 358 22 60 53 53 48 63 65 60 56 61 65 52 49 42 60 56 27 19 353 12 5 0 359 3 344 339 331 324 335 337 323 321 311
300 333 347 346 347 343 339 339 330 337 3 55 53 56 47 46 61 69 67 57 56 48 36 40 31 12 352 3 360 359 350 345 337 326 314 314 317 319 322 323 333 322 310
278 315 325 336 335 353 350 333 329 327 327 28 347 359 16 353 28 44 23 74 40 5 24 352 354 343 325 334 344 347 333 331 319 314 312 301 305 306 315 326 336 325 329
277 274 311 350 333 328 342 319 323 324 308 316 298 285 297 291 297 319 329 354 346 330 326 250 297 340 329 345 337 329 321 313 320 310 313 319 316 345 332 335 334 329 326
258 264 281 298 314 324 329 323 307 317 314 315 281 277 272 270 279 267 269 288 312 327 6 48 10 351 335 333 331 329 324 329 332 324 321 320 305 289 324 318 313 332 316
257 262 267 285 289 307 317 333 321 290 305 299 291 280 272 236 281 277 261 261 270 271 327 333 330 335 327 332 335 332 339 15 340 311 309 312 311 298 294 299 293 316 315
256 259 264 268 279 296 301 309 306 284 307 317 313 305 277 257 274 291 282 259 258 263 270 289 298 307 320 341 325 355 26 349 321 314 306 304 305 298 315 316 318 313 322
257 260 261 265 272 286 287 295 306 314 295 298 301 314 293 264 255 258 295 306 293 288 279 294 295 315 305 314 320 332 337 303 316 304 305 298 300 302 302 296 309 309 319
259 260 260 263 260 278 278 293 291 293 289 295 297 290 294 277 229 254 283 254 244 256 258 269 277 280 284 285 282 291 296 297 307 298 299 297 297 298 300 301 306 308 314
259 259 256 261 280 268 285 289 279 300 274 282 274 262 262 259 279 273 267 264 268 272 270 270 268 270 273 276 279 285 293 297 295 295 298 296 294 296 298 302 295 302 307
258 260 256 264 266 261 272 287 288 291 289 260 258 253 270 258 278 289 271 269 273 282 283 268 263 265 266 267 272 280 289 289 287 299 288 289 290 292 298 301 297 295 302
261 260 259 257 261 278 270 275 280 277 290 275 239 239 296 272 264 281 274 268 275 270 290 259 269 265 262 264 269 278 281 281 286 285 286 285 287 291 296 298 299 294 302
263 262 256 256 255 260 259 264 273 271 289 288 267 250 254 255 269 276 276 268 259 262 265 269 268 263 261 265 272 273 275 277 269 282 277 282 283 289 293 297 299 293 291
265 266 261 258 260 258 258 262 261 269 267 274 279 276 212 262 280 266 250 251 255 269 271 271 269 264 263 266 269 273 278 282 283 284 281 281 282 285 291 297 298 293 293
284 269 262 262 253 256 257 261 259 270 260 260 282 265 231 249 286 273 259 260 268 270 268 269 266 265 266 263 272 273 274 278 277 277 277 278 279 283 287 294 296 291 293
295 282 275 267 266 252 258 258 254 251 268 260 258 282 257 267 262 259 259 262 269 269 266 265 267 265 263 259 260 262 270 271 273 275 274 274 275 279 282 288 292 293 294
306 293 284 273 259 255 263 258 254 248 257 254 258 259 248 257 260 260 256 255 261 266 266 262 263 265 261 257 257 262 261 262 261 266 270 272 271 273 274 277 285 288 292
318 298 294 278 267 266 257 253 253 245 248 256 257 246 263 272 256 252 259 261 263 259 259 260 259 255 252 252 253 260 263 250 250 270 272 270 267 271 276 273 278 281 287
312 308 297 289 283 266 258 252 255 252 252 247 256 249 255 261 280 239 250 262 258 257 256 256 258 259 258 251 243 244 249 258 276 283 276 269 267 264 266 264 267 278 277
318 314 320 302 291 276 275 250 249 248 253 246 253 251 250 265 254 251 265 259 255 259 254 250 254 253 252 252 249 244 252 271 279 284 279 271 264 263 266 267 270 271 273